Location: ???????
(54.9996°N, 37.9529°E)
Time: 05:33:38
(UTC+00:00)

Cosmos 1371 Rocket - Visible Passes

Search period start: 16 July 2024 00:00
Search period end: 26 July 2024 00:00
Orbit: 751 x 787 km, 74.0° (Epoch: 15 July)

Date Brightness Start Highest point End Pass type
(mag) Time Alt. Az. Time Alt. Az. Time Alt. Az.
16 Jul 5.6 00:04:45 10° WSW 00:09:18 27° NW 00:13:52 10° NNE visible
16 Jul 4.4 21:46:32 20° S 21:50:02 53° ESE 21:55:13 10° NE visible
16 Jul 5.2 23:27:24 10° WSW 23:32:21 37° NW 23:37:19 10° NNE visible
17 Jul 4.9 21:10:24 19° SSE 21:13:31 35° ESE 21:18:20 10° NE visible
17 Jul 4.7 22:50:40 12° SW 22:55:29 51° NW 23:00:43 10° NNE visible
18 Jul 5.4 20:34:14 16° SE 20:37:06 24° E 20:41:18 10° NE visible
18 Jul 4.2 22:14:30 17° SW 22:18:43 73° WNW 22:24:04 10° NNE visible
18 Jul 6.0 23:57:43 10° W 00:01:46 21° NW 00:05:48 10° NNE visible
19 Jul 5.9 19:58:02 11° SE 20:00:46 16° E 20:03:54 10° ENE visible
19 Jul 4.0 21:38:19 20° SSW 21:42:01 78° ESE 21:47:23 10° NNE visible
19 Jul 5.7 23:20:10 10° WSW 23:24:43 27° NW 23:29:16 10° NNE visible
20 Jul 4.3 21:02:05 21° S 21:05:25 53° ESE 21:10:37 10° NE visible
20 Jul 5.3 22:42:48 10° WSW 22:47:45 37° NW 22:52:42 10° NNE visible
21 Jul 4.8 20:25:49 19° SSE 20:28:55 35° ESE 20:33:44 10° NE visible
21 Jul 4.7 22:06:05 12° SW 22:10:53 51° NW 22:16:06 10° NNE visible
21 Jul 6.4 23:50:52 10° WNW 23:54:17 17° NNW 23:57:42 10° N visible
22 Jul 5.4 19:49:31 15° SE 19:52:30 24° E 19:56:40 10° NE visible
22 Jul 4.2 21:29:46 16° SW 21:34:06 73° WNW 21:39:27 10° NNE visible
22 Jul 6.1 23:13:07 10° W 23:17:09 21° NW 23:21:10 10° NNE visible
23 Jul 5.8 19:13:10 10° SE 19:16:10 16° E 19:19:16 10° ENE visible
23 Jul 4.0 20:53:26 18° SSW 20:57:25 78° ESE 21:02:45 10° NNE visible
23 Jul 5.8 22:35:34 10° WSW 22:40:06 27° NW 22:44:38 10° NNE visible
24 Jul 6.7 00:22:20 10° NW 00:24:09 12° NNW 00:25:58 10° N visible
24 Jul 4.3 20:17:02 18° S 20:20:48 53° ESE 20:25:59 10° NE visible
24 Jul 5.3 21:58:12 10° WSW 22:03:08 36° NW 22:08:04 10° NNE visible
24 Jul 6.6 23:44:13 10° NW 23:46:52 14° NNW 23:49:31 10° N visible
25 Jul 4.8 19:40:35 16° SSE 19:44:17 35° ESE 19:49:06 10° NE visible
25 Jul 4.8 21:21:04 10° SW 21:26:15 51° NW 21:31:28 10° NNE visible
25 Jul 6.5 23:06:16 10° WNW 23:09:40 17° NNW 23:13:03 10° N visible
